Location: Helion Bumpstead
(52.0500°N, 0.4000°E)
Time: 21:43:38
(UTC+00:00)

Cosmos 1864 Rocket - Pass Details

Date: 15 November 2025
Orbit: 951 x 995 km, 82.9° (Epoch: 06 December)

Event Time Altitude Azimuth Distance (km) Brightness Sun altitude
Rises 04:06:25 0° 348° (NNW) 3,694 7.5 -29.3°
Reaches altitude 10° 04:08:56 10° 347° (NNW) 2,748 6.8 -28.9°
Enters shadow 04:11:10 24° 345° (NNW) 1,945 5.9 -28.6°
Exits shadow 04:15:27 74° 243° (WSW) 1,031 4.3 -27.9°
Drops below altitude 10° 04:21:32 10° 180° (S) 2,752 6.8 -27.0°
Sets 04:24:03 0° 179° (S) 3,699 7.5 -26.6°
